owner,sensor,date,latitude,longitude,vertical_datum,wind_speed,wind_to_direction,wind_speed_of_gust,qcFlag 
SCCF RECON,ioos:station:SCCF:53:1,2017-01-01T00:00:00Z,26.6493,-81.8810,2.11,1.0,159.4,-9999.0,'1111122,1111122,1111122' 
SCCF RECON,ioos:station:SCCF:53:1,2017-01-01T00:15:00Z,26.6493,-81.8810,2.11,-9999.0,152.3,-9999.0,'1111122,1111122,1111122' 
SCCF RECON,ioos:station:SCCF:53:1,2017-01-01T00:30:00Z,26.6493,-81.8810,2.11,0.5,136.1,-9999.0,'1111122,1111122,1111122' 
SCCF RECON,ioos:station:SCCF:53:1,2017-01-01T00:45:00Z,26.6493,-81.8810,2.11,0.7,74.4,-9999.0,'1111122,1111122,1111122' 
SCCF RECON,ioos:station:SCCF:53:1,2017-01-01T01:00:00Z,26.6493,-81.8810,2.11,0.4,56.5,-9999.0,'1111122,1111122,1111122' 
SCCF RECON,ioos:station:SCCF:53:1,2017-01-01T01:15:00Z,26.6493,-81.8810,2.11,1.3,126.8,-9999.0,'1111122,1111122,1111122' 
SCCF RECON,ioos:station:SCCF:53:1,2017-01-01T01:30:00Z,26.6493,-81.8810,2.11,0.9,131.5,-9999.0,'1111122,1111122,1111122' 
SCCF RECON,ioos:station:SCCF:53:1,2017-01-01T01:45:00Z,26.6493,-81.8810,2.11,1.1,130.0,-9999.0,'1111122,1111122,1111122' 
SCCF RECON,ioos:station:SCCF:53:1,2017-01-01T02:00:00Z,26.6493,-81.8810,2.11,1.2,150.3,-9999.0,'1111122,1111122,1111122' 
SCCF RECON,ioos:station:SCCF:53:1,2017-01-01T02:15:00Z,26.6493,-81.8810,2.11,1.5,131.9,-9999.0,'1111122,1111122,1111122' 
SCCF RECON,ioos:station:SCCF:53:1,2017-01-01T02:30:00Z,26.6493,-81.8810,2.11,2.3,133.8,-9999.0,'1111122,1111122,1111122' 
SCCF RECON,ioos:station:SCCF:53:1,2017-01-01T02:45:00Z,26.6493,-81.8810,2.11,2.9,136.6,-9999.0,'1111122,1111122,1111122' 
SCCF RECON,ioos:station:SCCF:53:1,2017-01-01T03:00:00Z,26.6493,-81.8810,2.11,2.3,139.5,-9999.0,'1111122,1111122,1111122' 
SCCF RECON,ioos:station:SCCF:53:1,2017-01-01T03:15:00Z,26.6493,-81.8810,2.11,1.4,143.8,-9999.0,'1111122,1111122,1111122' 
SCCF RECON,ioos:station:SCCF:53:1,2017-01-01T03:30:00Z,26.6493,-81.8810,2.11,2.6,107.3,-9999.0,'1111122,1111122,1111122' 
SCCF RECON,ioos:station:SCCF:53:1,2017-01-01T03:45:00Z,26.6493,-81.8810,2.11,1.7,140.3,-9999.0,'1111122,1111122,1111122' 
SCCF RECON,ioos:station:SCCF:53:1,2017-01-01T04:00:00Z,26.6493,-81.8810,2.11,2.7,93.4,-9999.0,'1111122,1111122,1111122' 
SCCF RECON,ioos:station:SCCF:53:1,2017-01-01T04:15:00Z,26.6493,-81.8810,2.11,2.4,124.6,-9999.0,'1111122,1111122,1111122' 
SCCF RECON,ioos:station:SCCF:53:1,2017-01-01T04:30:00Z,26.6493,-81.8810,2.11,2.2,110.2,-9999.0,'1111122,1111122,1111122' 
SCCF RECON,ioos:station:SCCF:53:1,2017-01-01T04:45:00Z,26.6493,-81.8810,2.11,2.0,78.6,-9999.0,'1111122,1111122,1111122' 
SCCF RECON,ioos:station:SCCF:53:1,2017-01-01T05:00:00Z,26.6493,-81.8810,2.11,1.9,74.8,-9999.0,'1111122,1111122,1111122' 
SCCF RECON,ioos:station:SCCF:53:1,2017-01-01T05:15:00Z,26.6493,-81.8810,2.11,2.8,73.9,-9999.0,'1111122,1111122,1111122' 
SCCF RECON,ioos:station:SCCF:53:1,2017-01-01T05:30:00Z,26.6493,-81.8810,2.11,2.0,83.3,-9999.0,'1111122,1111122,1111122' 
SCCF RECON,ioos:station:SCCF:53:1,2017-01-01T05:45:00Z,26.6493,-81.8810,2.11,2.1,84.6,-9999.0,'1111122,1111122,1111122' 
SCCF RECON,ioos:station:SCCF:53:1,2017-01-01T06:00:00Z,26.6493,-81.8810,2.11,1.6,79.8,-9999.0,'1111122,1111122,1111122' 
SCCF RECON,ioos:station:SCCF:53:1,2017-01-01T06:15:00Z,26.6493,-81.8810,2.11,3.8,93.7,-9999.0,'1111122,1111122,1111122' 
SCCF RECON,ioos:station:SCCF:53:1,2017-01-01T06:30:00Z,26.6493,-81.8810,2.11,2.4,82.8,-9999.0,'1111122,1111122,1111122' 
SCCF RECON,ioos:station:SCCF:53:1,2017-01-01T06:45:00Z,26.6493,-81.8810,2.11,3.2,76.0,-9999.0,'1111122,1111122,1111122' 
SCCF RECON,ioos:station:SCCF:53:1,2017-01-01T07:00:00Z,26.6493,-81.8810,2.11,3.2,83.7,-9999.0,'1111122,1111122,1111122' 
SCCF RECON,ioos:station:SCCF:53:1,2017-01-01T07:15:00Z,26.6493,-81.8810,2.11,3.0,80.3,-9999.0,'1111122,1111122,1111122' 
SCCF RECON,ioos:station:SCCF:53:1,2017-01-01T07:30:00Z,26.6493,-81.8810,2.11,3.2,80.3,-9999.0,'1111122,1111122,1111122' 
SCCF RECON,ioos:station:SCCF:53:1,2017-01-01T07:45:00Z,26.6493,-81.8810,2.11,3.5,86.5,-9999.0,'1111122,1111122,1111122' 
SCCF RECON,ioos:station:SCCF:53:1,2017-01-01T08:00:00Z,26.6493,-81.8810,2.11,3.6,85.6,-9999.0,'1111122,1111122,1111122' 
SCCF RECON,ioos:station:SCCF:53:1,2017-01-01T08:15:00Z,26.6493,-81.8810,2.11,2.9,104.3,-9999.0,'1111122,1111122,1111122' 
SCCF RECON,ioos:station:SCCF:53:1,2017-01-01T08:30:00Z,26.6493,-81.8810,2.11,2.9,89.1,-9999.0,'1111122,1111122,1111122' 
SCCF RECON,ioos:station:SCCF:53:1,2017-01-01T08:45:00Z,26.6493,-81.8810,2.11,3.8,87.5,-9999.0,'1111122,1111122,1111122' 
SCCF RECON,ioos:station:SCCF:53:1,2017-01-01T09:00:00Z,26.6493,-81.8810,2.11,2.7,93.7,-9999.0,'1111122,1111122,1111122' 
SCCF RECON,ioos:station:SCCF:53:1,2017-01-01T09:15:00Z,26.6493,-81.8810,2.11,2.4,74.3,-9999.0,'1111122,1111122,1111122' 
SCCF RECON,ioos:station:SCCF:53:1,2017-01-01T09:30:00Z,26.6493,-81.8810,2.11,3.2,102.4,-9999.0,'1111122,1111122,1111122' 
SCCF RECON,ioos:station:SCCF:53:1,2017-01-01T09:45:00Z,26.6493,-81.8810,2.11,2.6,89.4,-9999.0,'1111122,1111122,1111122' 
SCCF RECON,ioos:station:SCCF:53:1,2017-01-01T10:00:00Z,26.6493,-81.8810,2.11,3.0,88.9,-9999.0,'1111122,1111122,1111122' 
SCCF RECON,ioos:station:SCCF:53:1,2017-01-01T10:15:00Z,26.6493,-81.8810,2.11,3.1,89.4,-9999.0,'1111122,1111122,1111122' 
SCCF RECON,ioos:station:SCCF:53:1,2017-01-01T10:30:00Z,26.6493,-81.8810,2.11,3.7,97.5,-9999.0,'1111122,1111122,1111122' 
SCCF RECON,ioos:station:SCCF:53:1,2017-01-01T10:45:00Z,26.6493,-81.8810,2.11,4.3,116.2,-9999.0,'1111122,1111122,1111122' 
SCCF RECON,ioos:station:SCCF:53:1,2017-01-01T11:00:00Z,26.6493,-81.8810,2.11,3.2,79.1,-9999.0,'1111122,1111122,1111122' 
SCCF RECON,ioos:station:SCCF:53:1,2017-01-01T11:15:00Z,26.6493,-81.8810,2.11,2.9,103.2,-9999.0,'1111122,1111122,1111122' 
SCCF RECON,ioos:station:SCCF:53:1,2017-01-01T11:30:00Z,26.6493,-81.8810,2.11,2.2,83.4,-9999.0,'1111122,1111122,1111122' 
SCCF RECON,ioos:station:SCCF:53:1,2017-01-01T11:45:00Z,26.6493,-81.8810,2.11,3.4,92.9,-9999.0,'1111122,1111122,1111122' 
SCCF RECON,ioos:station:SCCF:53:1,2017-01-01T12:00:00Z,26.6493,-81.8810,2.11,3.1,96.3,-9999.0,'1111122,1111122,1111122' 
SCCF RECON,ioos:station:SCCF:53:1,2017-01-01T12:15:00Z,26.6493,-81.8810,2.11,3.3,105.3,-9999.0,'1111122,1111122,1111122' 
SCCF RECON,ioos:station:SCCF:53:1,2017-01-01T12:30:00Z,26.6493,-81.8810,2.11,4.1,129.2,-9999.0,'1111122,1111122,1111122' 
SCCF RECON,ioos:station:SCCF:53:1,2017-01-01T12:45:00Z,26.6493,-81.8810,2.11,3.6,117.0,-9999.0,'1111122,1111122,1111122' 
SCCF RECON,ioos:station:SCCF:53:1,2017-01-01T13:00:00Z,26.6493,-81.8810,2.11,3.6,121.8,-9999.0,'1111122,1111122,1111122' 
SCCF RECON,ioos:station:SCCF:53:1,2017-01-01T13:15:00Z,26.6493,-81.8810,2.11,4.5,123.8,-9999.0,'1111122,1111122,1111122' 
SCCF RECON,ioos:station:SCCF:53:1,2017-01-01T13:30:00Z,26.6493,-81.8810,2.11,4.3,106.0,-9999.0,'1111122,1111122,1111122' 
SCCF RECON,ioos:station:SCCF:53:1,2017-01-01T13:45:00Z,26.6493,-81.8810,2.11,3.8,125.4,-9999.0,'1111122,1111122,1111122' 
SCCF RECON,ioos:station:SCCF:53:1,2017-01-01T14:00:00Z,26.6493,-81.8810,2.11,3.9,125.8,-9999.0,'1111122,1111122,1111122' 
SCCF RECON,ioos:station:SCCF:53:1,2017-01-01T14:15:00Z,26.6493,-81.8810,2.11,3.9,126.4,-9999.0,'1111122,1111122,1111122' 
SCCF RECON,ioos:station:SCCF:53:1,2017-01-01T14:30:00Z,26.6493,-81.8810,2.11,3.7,93.1,-9999.0,'1111122,1111122,1111122' 
SCCF RECON,ioos:station:SCCF:53:1,2017-01-01T14:45:00Z,26.6493,-81.8810,2.11,4.8,128.2,-9999.0,'1111122,1111122,1111122' 
SCCF RECON,ioos:station:SCCF:53:1,2017-01-01T15:00:00Z,26.6493,-81.8810,2.11,2.2,120.1,-9999.0,'1111122,1111122,1111122' 
SCCF RECON,ioos:station:SCCF:53:1,2017-01-01T15:15:00Z,26.6493,-81.8810,2.11,6.5,182.2,-9999.0,'1111122,1111122,1111122' 
SCCF RECON,ioos:station:SCCF:53:1,2017-01-01T15:30:00Z,26.6493,-81.8810,2.11,6.1,148.0,-9999.0,'1111122,1111122,1111122' 
SCCF RECON,ioos:station:SCCF:53:1,2017-01-01T15:45:00Z,26.6493,-81.8810,2.11,4.3,146.4,-9999.0,'1111122,1111122,1111122' 
SCCF RECON,ioos:station:SCCF:53:1,2017-01-01T16:00:00Z,26.6493,-81.8810,2.11,3.9,152.0,-9999.0,'1111122,1111122,1111122' 
SCCF RECON,ioos:station:SCCF:53:1,2017-01-01T16:15:00Z,26.6493,-81.8810,2.11,2.3,192.7,-9999.0,'1111122,1111122,1111122' 
SCCF RECON,ioos:station:SCCF:53:1,2017-01-01T16:30:00Z,26.6493,-81.8810,2.11,3.8,147.5,-9999.0,'1111122,1111122,1111122' 
SCCF RECON,ioos:station:SCCF:53:1,2017-01-01T16:45:00Z,26.6493,-81.8810,2.11,2.5,124.9,-9999.0,'1111122,1111122,1111122' 
SCCF RECON,ioos:station:SCCF:53:1,2017-01-01T17:00:00Z,26.6493,-81.8810,2.11,3.0,172.3,-9999.0,'1111122,1111122,1111122' 
SCCF RECON,ioos:station:SCCF:53:1,2017-01-01T17:15:00Z,26.6493,-81.8810,2.11,2.9,114.5,-9999.0,'1111122,1111122,1111122' 
SCCF RECON,ioos:station:SCCF:53:1,2017-01-01T17:30:00Z,26.6493,-81.8810,2.11,0.7,191.0,-9999.0,'1111122,1111122,1111122' 
SCCF RECON,ioos:station:SCCF:53:1,2017-01-01T17:45:00Z,26.6493,-81.8810,2.11,2.0,154.7,-9999.0,'1111122,1111122,1111122' 
SCCF RECON,ioos:station:SCCF:53:1,2017-01-01T18:00:00Z,26.6493,-81.8810,2.11,2.3,125.5,-9999.0,'1111122,1111122,1111122' 
SCCF RECON,ioos:station:SCCF:53:1,2017-01-01T18:15:00Z,26.6493,-81.8810,2.11,0.5,145.1,-9999.0,'1111122,1111122,1111122' 
SCCF RECON,ioos:station:SCCF:53:1,2017-01-01T18:30:00Z,26.6493,-81.8810,2.11,1.8,269.4,-9999.0,'1111122,1111122,1111122' 
SCCF RECON,ioos:station:SCCF:53:1,2017-01-01T18:45:00Z,26.6493,-81.8810,2.11,1.3,290.9,-9999.0,'1111122,1111122,1111122' 
SCCF RECON,ioos:station:SCCF:53:1,2017-01-01T19:00:00Z,26.6493,-81.8810,2.11,1.6,171.3,-9999.0,'1111122,1111122,1111122' 
SCCF RECON,ioos:station:SCCF:53:1,2017-01-01T19:15:00Z,26.6493,-81.8810,2.11,1.3,217.5,-9999.0,'1111122,1111122,1111122' 
SCCF RECON,ioos:station:SCCF:53:1,2017-01-01T19:30:00Z,26.6493,-81.8810,2.11,2.8,203.9,-9999.0,'1111122,1111122,1111122' 
SCCF RECON,ioos:station:SCCF:53:1,2017-01-01T19:45:00Z,26.6493,-81.8810,2.11,2.0,201.8,-9999.0,'1111122,1111122,1111122' 
SCCF RECON,ioos:station:SCCF:53:1,2017-01-01T20:00:00Z,26.6493,-81.8810,2.11,4.0,216.0,-9999.0,'1111122,1111122,1111122' 
SCCF RECON,ioos:station:SCCF:53:1,2017-01-01T20:15:00Z,26.6493,-81.8810,2.11,3.1,204.9,-9999.0,'1111122,1111122,1111122' 
SCCF RECON,ioos:station:SCCF:53:1,2017-01-01T20:30:00Z,26.6493,-81.8810,2.11,2.9,198.2,-9999.0,'1111122,1111122,1111122' 
SCCF RECON,ioos:station:SCCF:53:1,2017-01-01T20:45:00Z,26.6493,-81.8810,2.11,3.9,213.9,-9999.0,'1111122,1111122,1111122' 
SCCF RECON,ioos:station:SCCF:53:1,2017-01-01T21:00:00Z,26.6493,-81.8810,2.11,4.0,221.5,-9999.0,'1111122,1111122,1111122' 
SCCF RECON,ioos:station:SCCF:53:1,2017-01-01T21:15:00Z,26.6493,-81.8810,2.11,3.7,224.0,-9999.0,'1111122,1111122,1111122' 
SCCF RECON,ioos:station:SCCF:53:1,2017-01-01T21:30:00Z,26.6493,-81.8810,2.11,2.4,229.0,-9999.0,'1111122,1111122,1111122' 
SCCF RECON,ioos:station:SCCF:53:1,2017-01-01T21:45:00Z,26.6493,-81.8810,2.11,4.0,223.8,-9999.0,'1111122,1111122,1111122' 
SCCF RECON,ioos:station:SCCF:53:1,2017-01-01T22:00:00Z,26.6493,-81.8810,2.11,3.7,222.9,-9999.0,'1111122,1111122,1111122' 
SCCF RECON,ioos:station:SCCF:53:1,2017-01-01T22:15:00Z,26.6493,-81.8810,2.11,4.0,221.9,-9999.0,'1111122,1111122,1111122' 
SCCF RECON,ioos:station:SCCF:53:1,2017-01-01T22:30:00Z,26.6493,-81.8810,2.11,2.9,214.6,-9999.0,'1111122,1111122,1111122' 
SCCF RECON,ioos:station:SCCF:53:1,2017-01-01T22:45:00Z,26.6493,-81.8810,2.11,2.3,210.6,-9999.0,'1111122,1111122,1111122' 
SCCF RECON,ioos:station:SCCF:53:1,2017-01-01T23:00:00Z,26.6493,-81.8810,2.11,2.1,193.4,-9999.0,'1111122,1111122,1111122' 
SCCF RECON,ioos:station:SCCF:53:1,2017-01-01T23:15:00Z,26.6493,-81.8810,2.11,2.2,198.8,-9999.0,'1111122,1111122,1111122' 
SCCF RECON,ioos:station:SCCF:53:1,2017-01-01T23:30:00Z,26.6493,-81.8810,2.11,2.1,190.4,-9999.0,'1111122,1111122,1111122' 
SCCF RECON,ioos:station:SCCF:53:1,2017-01-01T23:45:00Z,26.6493,-81.8810,2.11,0.2,215.2,-9999.0,'1111122,1111122,1111122' 
SCCF RECON,ioos:station:SCCF:53:1,2017-01-02T00:00:00Z,26.6493,-81.8810,2.11,1.6,190.2,-9999.0,'1111122,1111122,1111122' 
SCCF RECON,ioos:station:SCCF:53:1,2017-01-02T00:15:00Z,26.6493,-81.8810,2.11,1.1,182.9,-9999.0,'1111122,1111122,1111122' 
SCCF RECON,ioos:station:SCCF:53:1,2017-01-02T00:30:00Z,26.6493,-81.8810,2.11,0.5,149.8,-9999.0,'1111122,1111122,1111122' 
SCCF RECON,ioos:station:SCCF:53:1,2017-01-02T00:45:00Z,26.6493,-81.8810,2.11,1.0,276.0,-9999.0,'1111122,1111122,1111122' 
SCCF RECON,ioos:station:SCCF:53:1,2017-01-02T01:00:00Z,26.6493,-81.8810,2.11,0.7,308.4,-9999.0,'1111122,1111122,1111122' 
SCCF RECON,ioos:station:SCCF:53:1,2017-01-02T01:15:00Z,26.6493,-81.8810,2.11,1.6,50.1,-9999.0,'1111122,1111122,1111122' 
SCCF RECON,ioos:station:SCCF:53:1,2017-01-02T01:30:00Z,26.6493,-81.8810,2.11,2.0,126.7,-9999.0,'1111122,1111122,1111122' 
SCCF RECON,ioos:station:SCCF:53:1,2017-01-02T01:45:00Z,26.6493,-81.8810,2.11,2.1,95.2,-9999.0,'1111122,1111122,1111122' 
SCCF RECON,ioos:station:SCCF:53:1,2017-01-02T02:00:00Z,26.6493,-81.8810,2.11,2.1,132.7,-9999.0,'1111122,1111122,1111122' 
SCCF RECON,ioos:station:SCCF:53:1,2017-01-02T02:15:00Z,26.6493,-81.8810,2.11,2.3,136.9,-9999.0,'1111122,1111122,1111122' 
SCCF RECON,ioos:station:SCCF:53:1,2017-01-02T02:30:00Z,26.6493,-81.8810,2.11,2.2,114.4,-9999.0,'1111122,1111122,1111122' 
SCCF RECON,ioos:station:SCCF:53:1,2017-01-02T02:45:00Z,26.6493,-81.8810,2.11,2.0,138.2,-9999.0,'1111122,1111122,1111122' 
SCCF RECON,ioos:station:SCCF:53:1,2017-01-02T03:00:00Z,26.6493,-81.8810,2.11,1.9,84.9,-9999.0,'1111122,1111122,1111122' 
SCCF RECON,ioos:station:SCCF:53:1,2017-01-02T03:15:00Z,26.6493,-81.8810,2.11,2.4,121.9,-9999.0,'1111122,1111122,1111122' 
SCCF RECON,ioos:station:SCCF:53:1,2017-01-02T03:30:00Z,26.6493,-81.8810,2.11,2.5,101.3,-9999.0,'1111122,1111122,1111122' 
SCCF RECON,ioos:station:SCCF:53:1,2017-01-02T03:45:00Z,26.6493,-81.8810,2.11,2.6,89.6,-9999.0,'1111122,1111122,1111122' 
SCCF RECON,ioos:station:SCCF:53:1,2017-01-02T04:00:00Z,26.6493,-81.8810,2.11,2.0,71.8,-9999.0,'1111122,1111122,1111122' 
SCCF RECON,ioos:station:SCCF:53:1,2017-01-02T04:15:00Z,26.6493,-81.8810,2.11,2.6,88.0,-9999.0,'1111122,1111122,1111122' 
SCCF RECON,ioos:station:SCCF:53:1,2017-01-02T04:30:00Z,26.6493,-81.8810,2.11,1.4,68.5,-9999.0,'1111122,1111122,1111122' 
SCCF RECON,ioos:station:SCCF:53:1,2017-01-02T04:45:00Z,26.6493,-81.8810,2.11,1.4,80.6,-9999.0,'1111122,1111122,1111122' 
SCCF RECON,ioos:station:SCCF:53:1,2017-01-02T05:00:00Z,26.6493,-81.8810,2.11,2.4,122.4,-9999.0,'1111122,1111122,1111122' 
SCCF RECON,ioos:station:SCCF:53:1,2017-01-02T05:15:00Z,26.6493,-81.8810,2.11,3.2,92.7,-9999.0,'1111122,1111122,1111122' 
SCCF RECON,ioos:station:SCCF:53:1,2017-01-02T05:30:00Z,26.6493,-81.8810,2.11,2.2,71.5,-9999.0,'1111122,1111122,1111122' 
SCCF RECON,ioos:station:SCCF:53:1,2017-01-02T05:45:00Z,26.6493,-81.8810,2.11,3.0,126.5,-9999.0,'1111122,1111122,1111122' 
SCCF RECON,ioos:station:SCCF:53:1,2017-01-02T06:00:00Z,26.6493,-81.8810,2.11,2.2,83.2,-9999.0,'1111122,1111122,1111122' 
SCCF RECON,ioos:station:SCCF:53:1,2017-01-02T06:15:00Z,26.6493,-81.8810,2.11,4.0,128.5,-9999.0,'1111122,1111122,1111122' 
SCCF RECON,ioos:station:SCCF:53:1,2017-01-02T06:30:00Z,26.6493,-81.8810,2.11,4.1,113.4,-9999.0,'1111122,1111122,1111122' 
SCCF RECON,ioos:station:SCCF:53:1,2017-01-02T06:45:00Z,26.6493,-81.8810,2.11,2.3,130.5,-9999.0,'1111122,1111122,1111122' 
SCCF RECON,ioos:station:SCCF:53:1,2017-01-02T07:00:00Z,26.6493,-81.8810,2.11,1.8,132.5,-9999.0,'1111122,1111122,1111122' 
SCCF RECON,ioos:station:SCCF:53:1,2017-01-02T07:15:00Z,26.6493,-81.8810,2.11,2.3,113.1,-9999.0,'1111122,1111122,1111122' 
SCCF RECON,ioos:station:SCCF:53:1,2017-01-02T07:30:00Z,26.6493,-81.8810,2.11,1.5,116.7,-9999.0,'1111122,1111122,1111122' 
SCCF RECON,ioos:station:SCCF:53:1,2017-01-02T07:45:00Z,26.6493,-81.8810,2.11,2.2,83.0,-9999.0,'1111122,1111122,1111122' 
SCCF RECON,ioos:station:SCCF:53:1,2017-01-02T08:00:00Z,26.6493,-81.8810,2.11,1.8,107.4,-9999.0,'1111122,1111122,1111122' 
SCCF RECON,ioos:station:SCCF:53:1,2017-01-02T08:15:00Z,26.6493,-81.8810,2.11,2.6,99.1,-9999.0,'1111122,1111122,1111122' 
SCCF RECON,ioos:station:SCCF:53:1,2017-01-02T08:30:00Z,26.6493,-81.8810,2.11,2.3,81.0,-9999.0,'1111122,1111122,1111122' 
SCCF RECON,ioos:station:SCCF:53:1,2017-01-02T08:45:00Z,26.6493,-81.8810,2.11,2.1,96.9,-9999.0,'1111122,1111122,1111122' 
SCCF RECON,ioos:station:SCCF:53:1,2017-01-02T09:00:00Z,26.6493,-81.8810,2.11,1.6,96.8,-9999.0,'1111122,1111122,1111122' 
SCCF RECON,ioos:station:SCCF:53:1,2017-01-02T09:15:00Z,26.6493,-81.8810,2.11,3.2,116.3,-9999.0,'1111122,1111122,1111122' 
SCCF RECON,ioos:station:SCCF:53:1,2017-01-02T09:30:00Z,26.6493,-81.8810,2.11,1.7,121.4,-9999.0,'1111122,1111122,1111122' 
SCCF RECON,ioos:station:SCCF:53:1,2017-01-02T09:45:00Z,26.6493,-81.8810,2.11,2.9,122.7,-9999.0,'1111122,1111122,1111122' 
SCCF RECON,ioos:station:SCCF:53:1,2017-01-02T10:00:00Z,26.6493,-81.8810,2.11,2.4,113.7,-9999.0,'1111122,1111122,1111122' 
SCCF RECON,ioos:station:SCCF:53:1,2017-01-02T10:15:00Z,26.6493,-81.8810,2.11,2.8,104.6,-9999.0,'1111122,1111122,1111122' 
SCCF RECON,ioos:station:SCCF:53:1,2017-01-02T10:30:00Z,26.6493,-81.8810,2.11,3.1,124.5,-9999.0,'1111122,1111122,1111122' 
SCCF RECON,ioos:station:SCCF:53:1,2017-01-02T10:45:00Z,26.6493,-81.8810,2.11,3.1,125.0,-9999.0,'1111122,1111122,1111122' 
SCCF RECON,ioos:station:SCCF:53:1,2017-01-02T11:00:00Z,26.6493,-81.8810,2.11,2.8,104.8,-9999.0,'1111122,1111122,1111122' 
SCCF RECON,ioos:station:SCCF:53:1,2017-01-02T11:15:00Z,26.6493,-81.8810,2.11,2.4,120.8,-9999.0,'1111122,1111122,1111122' 
SCCF RECON,ioos:station:SCCF:53:1,2017-01-02T11:30:00Z,26.6493,-81.8810,2.11,3.2,86.1,-9999.0,'1111122,1111122,1111122' 
SCCF RECON,ioos:station:SCCF:53:1,2017-01-02T11:45:00Z,26.6493,-81.8810,2.11,2.0,111.3,-9999.0,'1111122,1111122,1111122' 
SCCF RECON,ioos:station:SCCF:53:1,2017-01-02T12:00:00Z,26.6493,-81.8810,2.11,2.4,105.0,-9999.0,'1111122,1111122,1111122' 
SCCF RECON,ioos:station:SCCF:53:1,2017-01-02T12:15:00Z,26.6493,-81.8810,2.11,2.7,77.9,-9999.0,'1111122,1111122,1111122' 
SCCF RECON,ioos:station:SCCF:53:1,2017-01-02T12:30:00Z,26.6493,-81.8810,2.11,3.2,100.1,-9999.0,'1111122,1111122,1111122' 
SCCF RECON,ioos:station:SCCF:53:1,2017-01-02T12:45:00Z,26.6493,-81.8810,2.11,3.3,105.7,-9999.0,'1111122,1111122,1111122' 
SCCF RECON,ioos:station:SCCF:53:1,2017-01-02T13:00:00Z,26.6493,-81.8810,2.11,3.0,122.3,-9999.0,'1111122,1111122,1111122' 
SCCF RECON,ioos:station:SCCF:53:1,2017-01-02T13:15:00Z,26.6493,-81.8810,2.11,3.8,122.4,-9999.0,'1111122,1111122,1111122' 
SCCF RECON,ioos:station:SCCF:53:1,2017-01-02T13:30:00Z,26.6493,-81.8810,2.11,3.3,130.2,-9999.0,'1111122,1111122,1111122' 
SCCF RECON,ioos:station:SCCF:53:1,2017-01-02T13:45:00Z,26.6493,-81.8810,2.11,4.2,137.1,-9999.0,'1111122,1111122,1111122' 
SCCF RECON,ioos:station:SCCF:53:1,2017-01-02T14:00:00Z,26.6493,-81.8810,2.11,3.0,134.6,-9999.0,'1111122,1111122,1111122' 
SCCF RECON,ioos:station:SCCF:53:1,2017-01-02T14:15:00Z,26.6493,-81.8810,2.11,2.2,142.0,-9999.0,'1111122,1111122,1111122' 
SCCF RECON,ioos:station:SCCF:53:1,2017-01-02T14:30:00Z,26.6493,-81.8810,2.11,3.7,153.3,-9999.0,'1111122,1111122,1111122' 
SCCF RECON,ioos:station:SCCF:53:1,2017-01-02T14:45:00Z,26.6493,-81.8810,2.11,3.5,166.1,-9999.0,'1111122,1111122,1111122' 
SCCF RECON,ioos:station:SCCF:53:1,2017-01-02T15:00:00Z,26.6493,-81.8810,2.11,4.7,156.0,-9999.0,'1111122,1111122,1111122' 
SCCF RECON,ioos:station:SCCF:53:1,2017-01-02T15:15:00Z,26.6493,-81.8810,2.11,4.0,153.7,-9999.0,'1111122,1111122,1111122' 
SCCF RECON,ioos:station:SCCF:53:1,2017-01-02T15:30:00Z,26.6493,-81.8810,2.11,2.0,124.6,-9999.0,'1111122,1111122,1111122' 
SCCF RECON,ioos:station:SCCF:53:1,2017-01-02T15:45:00Z,26.6493,-81.8810,2.11,3.0,181.0,-9999.0,'1111122,1111122,1111122' 
SCCF RECON,ioos:station:SCCF:53:1,2017-01-02T16:00:00Z,26.6493,-81.8810,2.11,6.4,144.1,-9999.0,'1111122,1111122,1111122' 
SCCF RECON,ioos:station:SCCF:53:1,2017-01-02T16:15:00Z,26.6493,-81.8810,2.11,5.8,105.6,-9999.0,'1111122,1111122,1111122' 
SCCF RECON,ioos:station:SCCF:53:1,2017-01-02T16:30:00Z,26.6493,-81.8810,2.11,2.8,177.0,-9999.0,'1111122,1111122,1111122' 
SCCF RECON,ioos:station:SCCF:53:1,2017-01-02T16:45:00Z,26.6493,-81.8810,2.11,2.5,192.5,-9999.0,'1111122,1111122,1111122' 
SCCF RECON,ioos:station:SCCF:53:1,2017-01-02T17:00:00Z,26.6493,-81.8810,2.11,5.0,180.6,-9999.0,'1111122,1111122,1111122' 
SCCF RECON,ioos:station:SCCF:53:1,2017-01-02T17:15:00Z,26.6493,-81.8810,2.11,3.5,158.2,-9999.0,'1111122,1111122,1111122' 
SCCF RECON,ioos:station:SCCF:53:1,2017-01-02T17:30:00Z,26.6493,-81.8810,2.11,1.3,163.2,-9999.0,'1111122,1111122,1111122' 
SCCF RECON,ioos:station:SCCF:53:1,2017-01-02T17:45:00Z,26.6493,-81.8810,2.11,4.9,130.7,-9999.0,'1111122,1111122,1111122' 
SCCF RECON,ioos:station:SCCF:53:1,2017-01-02T18:00:00Z,26.6493,-81.8810,2.11,3.0,147.4,-9999.0,'1111122,1111122,1111122' 
SCCF RECON,ioos:station:SCCF:53:1,2017-01-02T18:15:00Z,26.6493,-81.8810,2.11,2.2,168.0,-9999.0,'1111122,1111122,1111122' 
SCCF RECON,ioos:station:SCCF:53:1,2017-01-02T18:30:00Z,26.6493,-81.8810,2.11,2.0,197.4,-9999.0,'1111122,1111122,1111122' 
SCCF RECON,ioos:station:SCCF:53:1,2017-01-02T18:45:00Z,26.6493,-81.8810,2.11,1.4,166.0,-9999.0,'1111122,1111122,1111122' 
SCCF RECON,ioos:station:SCCF:53:1,2017-01-02T19:00:00Z,26.6493,-81.8810,2.11,3.2,199.8,-9999.0,'1111122,1111122,1111122' 
SCCF RECON,ioos:station:SCCF:53:1,2017-01-02T19:15:00Z,26.6493,-81.8810,2.11,2.2,231.7,-9999.0,'1111122,1111122,1111122' 
SCCF RECON,ioos:station:SCCF:53:1,2017-01-02T19:30:00Z,26.6493,-81.8810,2.11,3.5,214.8,-9999.0,'1111122,1111122,1111122' 
SCCF RECON,ioos:station:SCCF:53:1,2017-01-02T19:45:00Z,26.6493,-81.8810,2.11,3.3,224.5,-9999.0,'1111122,1111122,1111122' 
SCCF RECON,ioos:station:SCCF:53:1,2017-01-02T20:00:00Z,26.6493,-81.8810,2.11,1.4,233.8,-9999.0,'1111122,1111122,1111122' 
SCCF RECON,ioos:station:SCCF:53:1,2017-01-02T20:15:00Z,26.6493,-81.8810,2.11,0.5,260.4,-9999.0,'1111122,1111122,1111122' 
SCCF RECON,ioos:station:SCCF:53:1,2017-01-02T20:30:00Z,26.6493,-81.8810,2.11,2.5,227.6,-9999.0,'1111122,1111122,1111122' 
SCCF RECON,ioos:station:SCCF:53:1,2017-01-02T20:45:00Z,26.6493,-81.8810,2.11,3.7,222.6,-9999.0,'1111122,1111122,1111122' 
SCCF RECON,ioos:station:SCCF:53:1,2017-01-02T21:00:00Z,26.6493,-81.8810,2.11,5.3,202.0,-9999.0,'1111122,1111122,1111122' 
SCCF RECON,ioos:station:SCCF:53:1,2017-01-02T21:15:00Z,26.6493,-81.8810,2.11,4.3,221.4,-9999.0,'1111122,1111122,1111122' 
SCCF RECON,ioos:station:SCCF:53:1,2017-01-02T21:30:00Z,26.6493,-81.8810,2.11,3.4,231.1,-9999.0,'1111122,1111122,1111122' 
SCCF RECON,ioos:station:SCCF:53:1,2017-01-02T21:45:00Z,26.6493,-81.8810,2.11,3.7,230.4,-9999.0,'1111122,1111122,1111122' 
SCCF RECON,ioos:station:SCCF:53:1,2017-01-02T22:00:00Z,26.6493,-81.8810,2.11,3.8,225.5,-9999.0,'1111122,1111122,1111122' 
SCCF RECON,ioos:station:SCCF:53:1,2017-01-02T22:15:00Z,26.6493,-81.8810,2.11,3.9,210.8,-9999.0,'1111122,1111122,1111122' 
SCCF RECON,ioos:station:SCCF:53:1,2017-01-02T22:30:00Z,26.6493,-81.8810,2.11,4.1,204.4,-9999.0,'1111122,1111122,1111122' 
SCCF RECON,ioos:station:SCCF:53:1,2017-01-02T22:45:00Z,26.6493,-81.8810,2.11,2.6,196.7,-9999.0,'1111122,1111122,1111122' 
SCCF RECON,ioos:station:SCCF:53:1,2017-01-02T23:00:00Z,26.6493,-81.8810,2.11,1.2,160.1,-9999.0,'1111122,1111122,1111122' 
SCCF RECON,ioos:station:SCCF:53:1,2017-01-02T23:15:00Z,26.6493,-81.8810,2.11,2.0,181.2,-9999.0,'1111122,1111122,1111122' 
SCCF RECON,ioos:station:SCCF:53:1,2017-01-02T23:30:00Z,26.6493,-81.8810,2.11,1.6,182.7,-9999.0,'1111122,1111122,1111122' 
SCCF RECON,ioos:station:SCCF:53:1,2017-01-02T23:45:00Z,26.6493,-81.8810,2.11,2.3,192.8,-9999.0,'1111122,1111122,1111122' 
SCCF RECON,ioos:station:SCCF:53:1,2017-01-03T00:00:00Z,26.6493,-81.8810,2.11,1.7,177.6,-9999.0,'1111122,1111122,1111122' 
SCCF RECON,ioos:station:SCCF:53:1,2017-01-03T00:15:00Z,26.6493,-81.8810,2.11,3.1,173.2,-9999.0,'1111122,1111122,1111122' 
SCCF RECON,ioos:station:SCCF:53:1,2017-01-03T00:30:00Z,26.6493,-81.8810,2.11,1.9,121.2,-9999.0,'1111122,1111122,1111122' 
SCCF RECON,ioos:station:SCCF:53:1,2017-01-03T00:45:00Z,26.6493,-81.8810,2.11,1.8,159.0,-9999.0,'1111122,1111122,1111122' 